Location: Prairie State College
(41.5244°N, 87.6382°W)
Time: 16:27:05
(UTC-06:00)

Amateur Radio Satellites - All Passes

Search period start: 18 December 2014 15:57
Search period end: 19 December 2014 15:57
Location: Prairie State College, 41.5244°N, 87.6382°W

Satellite Date Start Highest point End Downlink Frequencies (MHz)
Time Altitude Azimuth
ISS 18 Dec 16:10:48 16:13:19 20° 343° (NNW) 16:15:49 145.825
STARS 18 Dec 16:16:56 16:19:00 13° 298° (WNW) 16:21:05 437.465
Cubesat XI-IV 18 Dec 16:21:37 16:26:04 28° 65° (ENE) 16:30:32 437.490
JAS-2 18 Dec 16:25:51 16:33:35 70° 258° (WSW) 16:40:43 435.910
AIST 1 18 Dec 16:37:36 16:42:00 82° 278° (W) 16:46:24
AO-7 18 Dec 16:52:23 16:58:21 22° 268° (W) 17:04:24 29.400- 29.500
CUTE-I 18 Dec 16:54:42 16:59:52 53° 71° (ENE) 17:05:02 437.470
MOZHAYETS 4 18 Dec 17:05:54 17:10:32 72° 285° (WNW) 17:15:06
PRISM 18 Dec 17:06:31 17:09:01 15° 92° (E) 17:11:30 437.425
GONETS M04 18 Dec 17:26:38 17:35:12 61° 269° (W) 17:43:41
RS-15 18 Dec 17:37:39 17:45:56 23° 15° (NNE) 17:54:25 29.354- 29.394
STRAND 1 18 Dec 17:38:32 17:41:43 16° 91° (E) 17:44:52 437.568
ISS 18 Dec 17:48:57 17:50:50 14° 4° (N) 17:52:44 145.825
MaSat-1 18 Dec 17:49:33 17:51:19 18° 59° (ENE) 17:53:10 437.345
Cubesat XI-IV 18 Dec 18:01:02 18:05:59 39° 262° (W) 18:10:57 437.490
JAS-2 18 Dec 18:16:49 18:19:30 12° 274° (W) 18:22:08 435.910
CUBESAT XI-V 18 Dec 18:22:25 18:26:56 53° 100° (E) 18:31:24 437.345
CUTE-I 18 Dec 18:36:27 18:40:14 20° 268° (W) 18:44:01 437.470
CANX-2 18 Dec 18:36:56 18:38:36 12° 62° (ENE) 18:40:16 2200.000
DANDE 18 Dec 18:40:37 18:44:32 15° 62° (ENE) 18:48:44 436.750
PRISM 18 Dec 18:40:49 18:44:46 43° 289° (WNW) 18:48:41 437.425
HO-68 18 Dec 18:55:33 19:02:03 39° 63° (ENE) 19:08:33 435.675
DOVE 4 18 Dec 19:02:11 19:03:17 11° 62° (ENE) 19:04:23 437.250
COMPASS 1 18 Dec 19:04:08 19:06:40 16° 65° (ENE) 19:09:14 437.405
SEEDS 18 Dec 19:06:01 19:09:04 20° 66° (ENE) 19:12:08 437.485
CUTE 1.7 + AOD 2 18 Dec 19:06:09 19:09:28 23° 67° (ENE) 19:12:49 437.475
STRAND 1 18 Dec 19:16:16 19:21:16 58° 288° (WNW) 19:26:15 437.568
BRITE-PL 18 Dec 19:23:31 19:27:21 36° 71° (ENE) 19:31:09 437.365/2234.400
MaSat-1 18 Dec 19:23:46 19:24:35 11° 252° (WSW) 19:25:25 437.345
ISS 18 Dec 19:25:20 19:28:14 28° 24° (NNE) 19:31:08 145.825
DELFI C3 18 Dec 19:34:59 19:36:40 12° 63° (ENE) 19:38:22 145.870
Oscar 11 18 Dec 19:35:35 19:38:16 16° 64° (ENE) 19:40:57 145.826/435.025
CUSAT 1 18 Dec 19:40:44 19:47:49 43° 74° (ENE) 19:55:44 437.405
CUBEBUG 2 18 Dec 19:41:42 19:42:52 11° 61° (ENE) 19:44:03 437.445
CINEMA 3 18 Dec 19:41:57 19:44:46 18° 65° (ENE) 19:47:38 145.822/145.860
UKube-1 18 Dec 19:42:50 19:45:23 16° 63° (ENE) 19:47:57 .
RS-15 18 Dec 19:50:56 20:01:49 52° 46° (NE) 20:13:07 29.354- 29.394
GOMX 1 18 Dec 20:00:56 20:05:04 67° 75° (ENE) 20:09:12 467.674
ZACube-1 18 Dec 20:00:58 20:02:57 13° 63° (ENE) 20:04:57 437.345
CUBESAT XI-V 18 Dec 20:01:05 20:03:56 17° 296° (WNW) 20:06:48 437.345
AAUSAT CUBESAT 2 18 Dec 20:04:03 20:08:11 62° 74° (ENE) 20:12:23 437.432
CANX-2 18 Dec 20:09:44 20:13:58 66° 259° (W) 20:18:15 2200.000
DANDE 18 Dec 20:21:33 20:28:59 69° 79° (ENE) 20:37:35 436.750
UWE-3 18 Dec 20:21:52 20:25:18 25° 68° (ENE) 20:28:49 435.000/436.395/437.385
FUNcube-1 18 Dec 20:26:46 20:30:08 24° 68° (ENE) 20:33:33 145.935
AISAT 18 Dec 20:35:47 20:38:59 20° 65° (ENE) 20:42:11 437.250
DOVE 4 18 Dec 20:36:23 20:40:29 66° 259° (W) 20:44:39 437.250
COMPASS 1 18 Dec 20:37:56 20:42:00 47° 261° (W) 20:46:07 437.405
SEEDS 18 Dec 20:40:42 20:44:37 37° 263° (W) 20:48:36 437.485
SO-50 18 Dec 20:40:52 20:44:51 32° 114° (ESE) 20:48:58 436.795
CUTE 1.7 + AOD 2 18 Dec 20:41:25 20:45:13 32° 264° (W) 20:49:05 437.475
BEESAT 2 18 Dec 20:42:51 20:43:54 11° 36° (NE) 20:44:57 435.950
HO-68 18 Dec 20:42:55 20:49:38 43° 261° (W) 20:56:25 435.675
DX 1 18 Dec 20:43:20 20:47:39 70° 74° (ENE) 20:51:59 434.975-435.025
CUBEBUG 1 18 Dec 20:52:11 20:53:07 11° 61° (ENE) 20:54:03 437.445
ISS 18 Dec 21:01:47 21:04:55 43° 221° (SW) 21:08:02 145.825
BRITE-PL 18 Dec 21:03:12 21:06:02 18° 267° (W) 21:08:51 437.365/2234.400
DELFI C3 18 Dec 21:07:22 21:11:26 60° 259° (W) 21:15:32 145.870
Oscar 11 18 Dec 21:09:51 21:14:02 48° 261° (W) 21:18:16 145.826/435.025
50 SAT 18 Dec 21:10:25 21:14:02 34° 71° (ENE) 21:17:42 437.505
CUBEBUG 2 18 Dec 21:14:49 21:18:57 69° 259° (WSW) 21:23:12 437.445
HUMSAT D 18 Dec 21:15:40 21:19:38 49° 73° (ENE) 21:23:41 437.325/437.525
UKube-1 18 Dec 21:16:55 21:21:07 51° 260° (W) 21:25:22 .
CINEMA 3 18 Dec 21:17:50 21:21:42 38° 262° (W) 21:25:39 145.822/145.860
TIGRISAT 18 Dec 21:20:02 21:22:14 13° 90° (E) 21:24:27 435.000
CUSAT 1 18 Dec 21:23:48 21:30:54 45° 268° (W) 21:38:48 437.405
ESTCUBE 1 18 Dec 21:24:25 21:28:09 26° 67° (ENE) 21:31:53 437.505/2401.250
VELOX 1 18 Dec 21:28:52 21:33:16 70° 74° (ENE) 21:37:41 145.980
ZACube-1 18 Dec 21:34:44 21:38:49 57° 260° (W) 21:43:01 437.345
AIST 2 18 Dec 21:36:21 21:39:06 16° 41° (NE) 21:41:49 435.215
BEESAT 3 18 Dec 21:41:02 21:44:51 33° 50° (NE) 21:48:36 437.485
AAUSAT CUBESAT 2 18 Dec 21:43:03 21:44:16 11° 271° (W) 21:45:29 437.432
POPSAT HIP 1 18 Dec 21:44:50 21:47:05 14° 91° (E) 21:49:21 437.405
UNISAT 6 18 Dec 21:46:38 21:50:34 26° 95° (E) 21:54:29 437.425
UWE-3 18 Dec 21:58:16 22:01:47 26° 265° (W) 22:05:23 435.000/436.395/437.385
FUNcube-1 18 Dec 22:02:47 22:06:22 28° 264° (W) 22:10:02 145.935
RS-15 18 Dec 22:03:31 22:14:16 52° 248° (WSW) 22:25:29 29.354- 29.394
DANDE 18 Dec 22:05:57 22:12:05 27° 273° (W) 22:18:51 436.750
SPROUT 18 Dec 22:06:52 22:09:24 16° 64° (ENE) 22:11:55 437.525
TISAT 1 18 Dec 22:10:02 22:12:53 18° 65° (ENE) 22:15:44 437.305
AISAT 18 Dec 22:11:11 22:15:20 39° 261° (W) 22:19:30 437.250
DUCHIFAT 1 18 Dec 22:12:45 22:16:26 28° 96° (E) 22:20:07 145.980
ANTELSAT 18 Dec 22:17:51 22:22:28 54° 100° (E) 22:27:06 437.575/2403.000
PCSat 18 Dec 22:18:40 22:23:39 35° 52° (NE) 22:28:36 145.827
BEESAT 2 18 Dec 22:18:46 22:22:58 69° 56° (NE) 22:27:06 435.950
SO-50 18 Dec 22:21:15 22:25:21 32° 313° (NW) 22:29:35 436.795
BUGSAT 1 18 Dec 22:22:04 22:25:34 28° 96° (E) 22:29:04 437.445
DX 1 18 Dec 22:23:37 22:24:21 10° 270° (W) 22:25:04 434.975-435.025
CUBEBUG 1 18 Dec 22:24:28 22:28:51 79° 257° (WSW) 22:33:14 437.445
QB50P2 18 Dec 22:24:33 22:28:34 39° 98° (E) 22:32:34 145.880/145.840
POLYITAN 1 18 Dec 22:32:31 22:36:40 48° 100° (E) 22:40:50 437.675
NANOSAT C BR1 18 Dec 22:36:37 22:40:47 53° 100° (E) 22:44:57 145.865
YUBILEINY 18 Dec 22:38:01 22:45:04 29° 82° (E) 22:52:06 435.215
50 SAT 18 Dec 22:46:34 22:49:22 18° 267° (W) 22:52:12 437.505
QB50P1 18 Dec 22:50:35 22:54:51 78° 102° (ESE) 22:59:07 145.935-145.965
HUMSAT D 18 Dec 22:53:44 22:55:45 13° 269° (W) 22:57:47 437.325/437.525
TIGRISAT 18 Dec 22:54:44 22:59:23 65° 286° (WNW) 23:04:03 435.000
ESTCUBE 1 18 Dec 23:00:51 23:04:53 31° 263° (W) 23:08:57 437.505/2401.250
VELOX 1 18 Dec 23:09:20 23:10:19 11° 270° (W) 23:11:18 145.980
AIST 2 18 Dec 23:13:54 23:18:12 69° 240° (WSW) 23:22:24 435.215
M-CUBED/EXP-1 PRIME 18 Dec 23:14:52 23:17:12 14° 55° (NE) 23:19:32 437.505
POPSAT HIP 1 18 Dec 23:19:09 23:23:16 50° 287° (WNW) 23:27:23 437.405
BEESAT 3 18 Dec 23:19:29 23:22:53 25° 247° (WSW) 23:26:15 437.485
UNISAT 6 18 Dec 23:23:09 23:27:21 33° 291° (WNW) 23:31:34 437.425
ITUPSAT 1 18 Dec 23:35:03 23:38:54 25° 66° (ENE) 23:42:46 437.325
SWISSCUBE 18 Dec 23:35:16 23:39:15 27° 67° (ENE) 23:43:15 437.505
SPROUT 18 Dec 23:40:56 23:45:05 49° 261° (W) 23:49:15 437.525
O/OREOS (USA 219) 18 Dec 23:43:55 23:46:39 16° 100° (E) 23:49:23 437.305
TISAT 1 18 Dec 23:44:27 23:48:25 40° 261° (W) 23:52:23 437.305
DUCHIFAT 1 18 Dec 23:48:44 23:52:11 25° 292° (WNW) 23:55:39 145.980
ANTELSAT 18 Dec 23:55:48 23:58:50 17° 296° (WNW) 00:01:53 437.575/2403.000
BUGSAT 1 18 Dec 23:57:44 00:00:56 23° 292° (WNW) 00:04:09 437.445
BEESAT 2 18 Dec 23:59:19 00:00:37 11° 252° (WSW) 00:01:54 435.950
BEESAT 19 Dec 00:00:04 00:04:34 43° 70° (ENE) 00:09:06 436.000
QB50P2 19 Dec 00:01:13 00:04:12 19° 294° (WNW) 00:07:10 145.880/145.840
PCSat 19 Dec 00:02:09 00:07:01 35° 250° (WSW) 00:11:51 145.827
Oscar 19 19 Dec 00:08:06 00:10:42 14° 90° (E) 00:13:17 437.125/150
POLYITAN 1 19 Dec 00:09:39 00:12:13 16° 296° (WNW) 00:14:48 437.675
NANOSAT C BR1 19 Dec 00:13:56 00:16:13 14° 296° (WNW) 00:18:30 145.865
AUBIESAT-1 19 Dec 00:22:42 00:27:20 50° 67° (ENE) 00:32:05 437.475
QB50P1 19 Dec 00:29:32 00:30:07 10° 299° (WNW) 00:30:42 145.935-145.965
YUBILEINY 19 Dec 00:32:35 00:41:13 62° 282° (WNW) 00:49:52 435.215
M-CUBED/EXP-1 PRIME 19 Dec 00:46:39 00:51:28 87° 252° (WSW) 00:56:25 437.505
ITUPSAT 1 19 Dec 01:12:09 01:16:35 37° 262° (W) 01:21:04 437.325
SWISSCUBE 19 Dec 01:12:39 01:16:58 33° 263° (W) 01:21:19 437.505
O/OREOS (USA 219) 19 Dec 01:21:20 01:25:38 47° 296° (WNW) 01:29:57 437.305
KKS-1 19 Dec 01:35:19 01:39:45 85° 76° (ENE) 01:44:12 437.445
STARS 19 Dec 01:35:58 01:40:15 57° 73° (ENE) 01:44:34 437.465
BEESAT 19 Dec 01:39:03 01:42:35 20° 267° (W) 01:46:09 436.000
Gurwin Techsat 1B 19 Dec 01:41:10 01:45:29 25° 94° (E) 01:49:46 435.225
Oscar 19 19 Dec 01:45:21 01:50:32 72° 286° (WNW) 01:55:42 437.125/150
ITAMSAT 1 19 Dec 01:56:48 02:01:53 55° 101° (E) 02:06:56 435.822/435.867
AUBIESAT-1 19 Dec 01:59:03 02:02:30 20° 263° (W) 02:06:01 437.475
MOZHAYETS 4 19 Dec 02:34:02 02:35:52 12° 61° (ENE) 02:37:41
YUBILEINY 19 Dec 02:37:05 02:40:05 12° 305° (NW) 02:43:06 435.215
AIST 1 19 Dec 02:45:26 02:48:56 24° 74° (ENE) 02:52:24
HORYU 2 19 Dec 02:56:33 03:00:58 50° 100° (E) 03:05:21 437.375
AO-7 19 Dec 02:58:50 03:05:32 26° 94° (E) 03:12:10 29.400- 29.500
STARS 19 Dec 03:15:07 03:17:05 13° 269° (W) 03:19:05 437.465
Gurwin Techsat 1B 19 Dec 03:20:36 03:25:35 42° 291° (WNW) 03:30:32 435.225
VERMONT LUNAR 19 Dec 03:27:01 03:30:04 27° 155° (SSE) 03:33:07 437.305
PHONESAT 2.4 19 Dec 03:32:17 03:35:08 22° 152° (SSE) 03:38:00 2401.200-2431.200
ITAMSAT 1 19 Dec 03:37:19 03:40:57 20° 298° (WNW) 03:44:34 435.822/435.867
JAS-2 19 Dec 03:38:50 03:41:24 13° 87° (E) 03:43:52 435.910
PRISM 19 Dec 03:58:21 04:00:27 14° 63° (ENE) 04:02:32 437.425
MOZHAYETS 4 19 Dec 04:07:47 04:12:26 77° 258° (WSW) 04:17:07
AIST 1 19 Dec 04:22:57 04:26:32 27° 271° (W) 04:30:06
GONETS M04 19 Dec 04:31:53 04:39:30 34° 84° (E) 04:47:07
HORYU 2 19 Dec 04:34:20 04:37:14 17° 296° (WNW) 04:40:07 437.375
AO-7 19 Dec 04:50:36 04:58:55 70° 292° (WNW) 05:07:11 29.400- 29.500
STRAND 1 19 Dec 04:54:20 04:58:29 26° 65° (ENE) 05:02:37 437.568
VERMONT LUNAR 19 Dec 05:04:37 05:08:08 68° 172° (S) 05:11:39 437.305
PHONESAT 2.4 19 Dec 05:09:53 05:13:28 61° 168° (SSE) 05:17:04 2401.200-2431.200
SO-50 19 Dec 05:11:45 05:16:12 34° 48° (NE) 05:20:40 436.795
CUTE-I 19 Dec 05:12:30 05:16:26 21° 93° (E) 05:20:20 437.470
JAS-2 19 Dec 05:21:35 05:27:20 73° 287° (WNW) 05:32:34 435.910
CUBESAT XI-V 19 Dec 05:25:55 05:30:28 52° 73° (ENE) 05:35:00 437.345
PRISM 19 Dec 05:31:20 05:35:30 57° 259° (W) 05:39:41 437.425
Cubesat XI-IV 19 Dec 06:17:40 06:23:01 83° 104° (ESE) 06:28:20 437.490
GONETS M04 19 Dec 06:27:20 06:35:55 53° 284° (WNW) 06:44:32
STRAND 1 19 Dec 06:32:40 06:37:27 40° 262° (W) 06:42:15 437.568
VERMONT LUNAR 19 Dec 06:42:53 06:46:24 67° 189° (S) 06:49:55 437.305
AO-7 19 Dec 06:45:25 06:50:13 17° 313° (NW) 06:55:01 29.400- 29.500
PHONESAT 2.4 19 Dec 06:48:28 06:52:06 74° 186° (S) 06:55:44 2401.200-2431.200
CUTE-I 19 Dec 06:51:38 06:56:46 50° 289° (WNW) 07:01:52 437.470
SO-50 19 Dec 06:52:21 06:56:44 33° 246° (WSW) 07:01:06 436.795
CUBESAT XI-V 19 Dec 07:05:22 07:08:12 16° 269° (W) 07:11:02 437.345
JAS-2 19 Dec 07:10:34 07:11:12 10° 307° (NW) 07:11:49 435.910
BRITE-PL 19 Dec 07:28:39 07:30:43 13° 91° (E) 07:32:51 437.365/2234.400
CANX-2 19 Dec 07:55:56 07:59:16 21° 94° (E) 08:02:34 2200.000
Cubesat XI-IV 19 Dec 07:59:46 08:02:23 14° 301° (WNW) 08:05:00 437.490
GOMX 1 19 Dec 08:02:23 08:05:59 21° 94° (E) 08:09:43 467.674
HO-68 19 Dec 08:10:05 08:16:40 38° 98° (E) 08:23:11 435.675
TIGRISAT 19 Dec 08:20:24 08:22:00 12° 61° (ENE) 08:23:37 435.000
VERMONT LUNAR 19 Dec 08:21:25 08:24:27 27° 205° (SSW) 08:27:28 437.305
COMPASS 1 19 Dec 08:22:07 08:25:46 27° 95° (E) 08:29:22 437.405
SEEDS 19 Dec 08:25:13 08:29:10 35° 97° (E) 08:33:05 437.485
CUTE 1.7 + AOD 2 19 Dec 08:26:23 08:30:30 42° 98° (E) 08:34:35 437.475
PHONESAT 2.4 19 Dec 08:27:16 08:30:35 34° 202° (SSW) 08:33:55 2401.200-2431.200
DX 1 19 Dec 08:34:00 08:35:30 12° 91° (E) 08:36:59 434.975-435.025
DOVE 4 19 Dec 08:34:46 08:39:03 33° 97° (E) 08:43:32 437.250
POPSAT HIP 1 19 Dec 08:39:27 08:41:00 12° 62° (ENE) 08:42:32 437.405
MaSat-1 19 Dec 08:41:16 08:43:32 46° 114° (ESE) 08:45:44 437.345
UNISAT 6 19 Dec 08:46:36 08:50:00 23° 66° (ENE) 08:53:28 437.425
YUBILEINY 19 Dec 08:48:31 08:52:25 13° 57° (ENE) 08:56:17 435.215
DELFI C3 19 Dec 08:48:49 08:51:47 19° 93° (E) 08:54:44 145.870
CUSAT 1 19 Dec 08:54:26 08:57:24 26° 87° (E) 09:01:09 437.405
Oscar 11 19 Dec 08:57:23 09:01:13 29° 96° (E) 09:05:01 145.826/435.025
BRITE-PL 19 Dec 09:04:57 09:09:34 69° 285° (WNW) 09:14:33 437.365/2234.400
UKube-1 19 Dec 09:05:03 09:08:39 25° 96° (E) 09:12:14 .
CUBEBUG 2 19 Dec 09:06:05 09:09:56 25° 95° (E) 09:13:50 437.445
DUCHIFAT 1 19 Dec 09:06:17 09:09:33 23° 67° (ENE) 09:12:51 145.980
CINEMA 3 19 Dec 09:11:46 09:16:19 47° 99° (E) 09:21:02 145.822/145.860
BUGSAT 1 19 Dec 09:13:09 09:16:16 21° 67° (ENE) 09:19:22 437.445
ANTELSAT 19 Dec 09:17:25 09:21:35 47° 72° (ENE) 09:25:53 437.575/2403.000
QB50P2 19 Dec 09:18:11 09:21:53 31° 69° (ENE) 09:25:37 145.880/145.840
VELOX 1 19 Dec 09:21:27 09:23:32 13° 91° (E) 09:25:37 145.980
AAUSAT CUBESAT 2 19 Dec 09:23:05 09:27:20 69° 285° (WNW) 09:31:31 437.432
ZACube-1 19 Dec 09:23:33 09:27:25 27° 95° (E) 09:31:19 437.345
POLYITAN 1 19 Dec 09:26:14 09:30:07 37° 71° (ENE) 09:34:02 437.675
NANOSAT C BR1 19 Dec 09:29:48 09:33:45 40° 71° (ENE) 09:37:42 145.865
CANX-2 19 Dec 09:31:21 09:35:15 33° 290° (WNW) 09:39:08 2200.000
DANDE 19 Dec 09:38:05 09:41:22 71° 97° (E) 09:45:46 436.750
GOMX 1 19 Dec 09:39:46 09:44:12 43° 288° (WNW) 09:48:55 467.674
QB50P1 19 Dec 09:43:42 09:47:50 59° 74° (ENE) 09:51:59 145.935-145.965
UWE-3 19 Dec 09:47:05 09:51:36 58° 100° (E) 09:56:12 435.000/436.395/437.385
FUNcube-1 19 Dec 09:50:23 09:54:48 52° 100° (E) 09:59:16 145.935
O/OREOS (USA 219) 19 Dec 09:51:54 09:56:00 33° 61° (ENE) 10:00:06 437.305
TIGRISAT 19 Dec 09:53:48 09:58:07 71° 258° (WSW) 10:02:33 435.000
HO-68 19 Dec 09:57:45 10:04:23 43° 296° (WNW) 10:10:58 435.675
COMPASS 1 19 Dec 09:57:51 10:01:24 26° 292° (WNW) 10:04:55 437.405
SEEDS 19 Dec 10:01:33 10:04:46 21° 293° (WNW) 10:07:59 437.485
AISAT 19 Dec 10:02:05 10:06:13 37° 98° (E) 10:10:19 437.250
CUTE 1.7 + AOD 2 19 Dec 10:03:10 10:06:06 18° 295° (WNW) 10:09:01 437.475
DX 1 19 Dec 10:07:50 10:12:08 63° 286° (WNW) 10:16:25 434.975-435.025
POPSAT HIP 1 19 Dec 10:12:10 10:16:21 65° 258° (WSW) 10:20:33 437.405
DOVE 4 19 Dec 10:12:43 10:16:42 28° 291° (WNW) 10:20:53 437.250
CUBEBUG 1 19 Dec 10:14:28 10:17:31 19° 93° (E) 10:20:34 437.445
RS-15 19 Dec 10:17:30 10:25:57 27° 103° (ESE) 10:34:22 29.354- 29.394
UNISAT 6 19 Dec 10:22:39 10:26:35 34° 263° (W) 10:30:39 437.425
DELFI C3 19 Dec 10:23:24 10:27:09 34° 289° (WNW) 10:30:52 145.870
50 SAT 19 Dec 10:25:19 10:29:26 59° 101° (E) 10:33:32 437.505
Oscar 11 19 Dec 10:33:41 10:37:16 25° 292° (WNW) 10:40:50 145.826/435.025
HUMSAT D 19 Dec 10:35:35 10:39:55 84° 284° (WNW) 10:44:16 437.325/437.525
CUSAT 1 19 Dec 10:37:47 10:40:35 20° 296° (WNW) 10:43:59 437.405
UKube-1 19 Dec 10:41:03 10:44:47 29° 292° (WNW) 10:48:30 .
DUCHIFAT 1 19 Dec 10:41:32 10:45:15 30° 263° (W) 10:49:00 145.980
YUBILEINY 19 Dec 10:42:25 10:51:06 68° 79° (E) 10:59:44 435.215
CUBEBUG 2 19 Dec 10:42:30 10:46:38 33° 290° (WNW) 10:50:50 437.445
BUGSAT 1 19 Dec 10:47:57 10:51:36 31° 263° (W) 10:55:14 437.445
CINEMA 3 19 Dec 10:49:50 10:53:12 20° 294° (WNW) 10:56:40 145.822/145.860
ESTCUBE 1 19 Dec 10:53:05 10:57:30 52° 100° (E) 11:01:52 437.505/2401.250
QB50P2 19 Dec 10:54:32 10:57:50 22° 266° (W) 11:01:09 145.880/145.840
ANTELSAT 19 Dec 10:56:01 10:58:40 16° 269° (W) 11:01:22 437.575/2403.000
VELOX 1 19 Dec 10:56:08 11:00:28 57° 287° (WNW) 11:04:48 145.980
ZACube-1 19 Dec 10:59:50 11:03:44 29° 291° (WNW) 11:07:41 437.345
POLYITAN 1 19 Dec 11:03:18 11:06:12 18° 267° (W) 11:09:07 437.675
NANOSAT C BR1 19 Dec 11:07:05 11:09:48 17° 267° (W) 11:12:32 145.865
QB50P1 19 Dec 11:22:38 11:24:06 12° 270° (W) 11:25:33 145.935-145.965
Oscar 19 19 Dec 11:24:43 11:28:33 22° 64° (ENE) 11:32:24 437.125/150
UWE-3 19 Dec 11:25:01 11:27:41 16° 296° (WNW) 11:30:23 435.000/436.395/437.385
FUNcube-1 19 Dec 11:27:55 11:30:44 17° 296° (WNW) 11:33:35 145.935
SPROUT 19 Dec 11:27:56 11:31:37 27° 96° (E) 11:35:18 437.525
TISAT 1 19 Dec 11:29:25 11:33:09 30° 97° (E) 11:36:52 437.305
O/OREOS (USA 219) 19 Dec 11:31:36 11:35:13 24° 258° (WSW) 11:38:51 437.305
AISAT 19 Dec 11:39:16 11:42:36 21° 294° (WNW) 11:45:55 437.250
ITAMSAT 1 19 Dec 11:39:47 11:41:26 12° 58° (ENE) 11:43:05 435.822/435.867
CUBEBUG 1 19 Dec 11:50:00 11:54:02 38° 289° (WNW) 11:58:02 437.445
50 SAT 19 Dec 12:02:20 12:04:10 13° 297° (WNW) 12:05:59 437.505
BEESAT 19 Dec 12:03:18 12:04:08 10° 89° (E) 12:04:58 436.000
BEESAT 2 19 Dec 12:16:29 12:18:20 13° 108° (ESE) 12:20:11 435.950
RS-15 19 Dec 12:26:04 12:37:02 80° 304° (NW) 12:48:05 29.354- 29.394
ESTCUBE 1 19 Dec 12:31:13 12:33:56 16° 297° (WNW) 12:36:39 437.505/2401.250
YUBILEINY 19 Dec 12:40:26 12:47:05 26° 279° (W) 12:53:45 435.215
PCSat 19 Dec 13:00:59 13:05:36 30° 109° (ESE) 13:10:15 145.827
Gurwin Techsat 1B 19 Dec 13:02:14 13:07:09 40° 69° (ENE) 13:12:04 435.225
Oscar 19 19 Dec 13:02:35 13:07:32 48° 261° (W) 13:12:33 437.125/150
SPROUT 19 Dec 13:04:03 13:07:38 26° 292° (WNW) 13:11:12 437.525
TISAT 1 19 Dec 13:05:28 13:08:50 23° 293° (WNW) 13:12:11 437.305
ITUPSAT 1 19 Dec 13:12:22 13:17:04 55° 101° (E) 13:21:44 437.325
SWISSCUBE 19 Dec 13:12:28 13:17:12 62° 101° (ESE) 13:21:53 437.505
AIST 2 19 Dec 13:13:00 13:16:26 24° 113° (ESE) 13:19:56 435.215
BEESAT 3 19 Dec 13:13:23 13:17:24 59° 119° (ESE) 13:21:30 437.485
ITAMSAT 1 19 Dec 13:14:54 13:20:06 84° 75° (ENE) 13:25:18 435.822/435.867
KKS-1 19 Dec 13:27:42 13:30:33 17° 92° (E) 13:33:24 437.445
STARS 19 Dec 13:28:41 13:29:39 11° 90° (E) 13:30:36 437.465
BEESAT 19 Dec 13:37:45 13:42:33 80° 285° (WNW) 13:47:17 436.000
AUBIESAT-1 19 Dec 13:40:50 13:44:54 37° 102° (ESE) 13:48:36 437.475
ISS 19 Dec 13:42:29 13:45:42 52° 140° (SE) 13:48:55 145.825
BEESAT 2 19 Dec 13:51:58 13:56:03 61° 305° (NW) 14:00:12 435.950
JAS-2 19 Dec 13:54:07 13:55:03 10° 52° (NE) 13:55:59 435.910
HORYU 2 19 Dec 13:55:14 13:59:30 47° 72° (ENE) 14:03:49 437.375
AO-7 19 Dec 13:57:53 14:05:18 38° 59° (ENE) 14:12:46 29.400- 29.500
M-CUBED/EXP-1 PRIME 19 Dec 14:05:14 14:09:42 79° 107° (ESE) 14:13:44 437.505
RS-15 19 Dec 14:42:16 14:51:24 29° 332° (NNW) 15:00:42 29.354- 29.394
GONETS M04 19 Dec 14:42:24 14:47:34 17° 59° (ENE) 14:52:42
Gurwin Techsat 1B 19 Dec 14:42:48 14:47:12 26° 265° (W) 14:51:37 435.225
PCSat 19 Dec 14:43:45 14:48:50 40° 307° (NW) 14:53:58 145.827
AIST 2 19 Dec 14:51:00 14:54:54 35° 310° (NW) 14:58:52 435.215
ITUPSAT 1 19 Dec 14:51:29 14:54:30 17° 297° (WNW) 14:57:31 437.325
SWISSCUBE 19 Dec 14:51:47 14:54:32 16° 298° (WNW) 14:57:17 437.505
BEESAT 3 19 Dec 14:53:12 14:55:58 17° 318° (NW) 14:58:45 437.485
ITAMSAT 1 19 Dec 14:58:40 15:00:13 11° 271° (W) 15:01:45 435.822/435.867
STARS 19 Dec 15:02:10 15:06:35 71° 286° (WNW) 15:11:00 437.465
KKS-1 19 Dec 15:03:09 15:07:26 46° 288° (WNW) 15:11:42 437.445
AUBIESAT-1 19 Dec 15:16:16 15:19:34 21° 301° (WNW) 15:22:41 437.475
AIST 1 19 Dec 15:16:32 15:19:00 15° 85° (E) 15:21:27
ISS 19 Dec 15:19:36 15:22:26 26° 338° (NNW) 15:25:17 145.825
JAS-2 19 Dec 15:31:22 15:38:46 53° 70° (ENE) 15:45:33 435.910
HORYU 2 19 Dec 15:33:37 15:36:25 16° 268° (W) 15:39:15 437.375
M-CUBED/EXP-1 PRIME 19 Dec 15:42:22 15:43:57 12° 306° (NW) 15:45:30 437.505
